Powrót do katalogu

SPACEMOBILE-009

AktywnyŁącznośćVLEO
NORAD 69590·PAYLOAD·🇺🇸 United States

Wystrzelony Jun 17, 2026 z Cape Canaveral Space Force Station

Loading…

Następne Przeloty (najbliższe 24 godziny)

TLE

ŚwieżeSource: CelesTrak SupGP

Epoka: Sep 14, 2026, 11:03 UTC

1 69590C 26139B   26257.46091435  .00003550  00000+0  19908-3 0  2573
2 69590  52.9925 217.2708 0002979 218.3133 123.5006 15.12866484    11

Śledź SPACEMOBILE-009 w czasie rzeczywistym z AllMySat

Download on the App Store